Griffin-Spaldg Cnty AP, Griff, GA

12:00 PM EDT on October 19, 2019 (GMT -0400)
Griffin-Spaldg Cnty AP, Griff

Weather History for K6A2 - September, 2019

Change the Weather History Date:

Tuesday, September 17, 2019

  Actual Average (KFFC) Record (KFFC)
Temperature  
Mean Temperature 67 °F -  
Max Temperature 68 °F 80 °F 95 °F (2010)
Min Temperature 66 °F 57 °F 46 °F (1999)
Cooling Degree Days 2    
Growing Degree Days 17 (Base 50)    
Moisture  
Dew Point 61 °F    
Average Humidity 81    
Maximum Humidity 83    
Minimum Humidity 78    
Precipitation  
Precipitation 0.00 in - - ()
Sea Level Pressure  
Sea Level Pressure 30.00 in    
Wind  
Wind Speed 1 mph (NNW)    
Max Wind Speed 9 mph    
Max Gust Speed 16 mph    
Visibility 10 miles    
Events      
Averages and records for this station are not official NWS values.
T = Trace of Precipitation, MM = Missing Value Source: NWS Daily Summary

Daily Weather History Graph

Daily Weather History Graph

Search for Another Location

Airport or City:

Astronomy

Sep. 17, 2019 Rise Set
Actual Time 7:21 AM EDT 7:40 PM EDT
Civil Twilight 6:56 AM EDT 8:05 PM EDT
Nautical Twilight 6:27 AM EDT 8:34 PM EDT
Astronomical Twilight 5:58 AM EDT 9:04 PM EDT
Moon 9:52 PM EDT (9/17) 10:17 AM EDT (9/17)
Length of Visible Light 13h 08m
Length of Day
12h 19m
Waning Gibbous, 89% of the Moon is Illuminated
Sep 17
Waning Gibbous
Sep 21
Last Quarter
Sep 28
New
Oct 5
First Quarter
Oct 13
Full

Hourly Weather History & Observations

Time (EDT) Temp. Dew Point Humidity Pressure Visibility Wind Dir Wind Speed Gust Speed Precip Events Conditions
12:15 AM - - N/A% 30.03 in 10.0 mi Calm Calm - N/A   Scattered Clouds
12:35 AM - - N/A% 30.02 in 10.0 mi Calm Calm - N/A   Clear
12:55 AM - - N/A% 30.02 in 10.0 mi Calm Calm - N/A   Clear
1:15 AM - - N/A% 30.02 in 10.0 mi Calm Calm - N/A   Scattered Clouds
1:35 AM - - N/A% 30.02 in 10.0 mi Calm Calm - N/A   Scattered Clouds
1:55 AM - - N/A% 30.01 in 10.0 mi Calm Calm - N/A   Clear
2:15 AM - - N/A% 30.01 in 10.0 mi Calm Calm - N/A   Scattered Clouds
2:35 AM 68.0 °F 60.8 °F 78% 30.01 in 10.0 mi Calm Calm - N/A   Clear
2:55 AM - - N/A% 30.00 in 7.0 mi Calm Calm - N/A   Scattered Clouds
3:35 AM - - N/A% 30.00 in 10.0 mi Calm Calm - N/A   Clear
3:55 AM - - N/A% 30.00 in 10.0 mi Calm Calm - N/A   Clear
4:15 AM - - N/A% 29.99 in 10.0 mi Calm Calm - N/A   Clear
4:35 AM - - N/A% 29.99 in 10.0 mi Calm Calm - N/A   Clear
4:55 AM 66.2 °F 60.8 °F 83% 29.99 in 10.0 mi Calm Calm - N/A   Clear
5:15 AM 66.2 °F 60.8 °F 83% 29.99 in 10.0 mi Calm Calm - N/A   Clear
5:35 AM - - N/A% 30.00 in 10.0 mi Calm Calm - N/A   Clear
5:55 AM - - N/A% 30.00 in 10.0 mi Calm Calm - N/A   Clear
6:15 AM - - N/A% 30.00 in 10.0 mi Calm Calm - N/A   Clear
6:35 AM - - N/A% 30.01 in 10.0 mi Calm Calm - N/A   Clear
6:55 AM - - N/A% 30.01 in 10.0 mi Calm Calm - N/A   Clear
7:15 AM - - N/A% 30.02 in 10.0 mi Calm Calm - N/A   Clear
7:35 AM - - N/A% 30.02 in 10.0 mi Calm Calm - N/A   Clear
7:55 AM - - N/A% 30.03 in 10.0 mi Calm Calm - N/A   Clear
8:15 AM - - N/A% 30.03 in 10.0 mi Calm Calm - N/A   Clear
8:35 AM - - N/A% 30.04 in 10.0 mi Calm Calm - N/A   Clear
8:55 AM - - N/A% 30.04 in 10.0 mi Calm Calm - N/A   Clear
9:15 AM - - N/A% 30.04 in 10.0 mi Calm Calm - N/A   Clear
9:35 AM - - N/A% 30.04 in 10.0 mi Calm Calm - N/A   Clear
9:55 AM - - N/A% 30.05 in 10.0 mi Calm Calm - N/A   Clear
10:15 AM - - N/A% 30.05 in 10.0 mi NE 3.5 mph - N/A   Clear
10:55 AM - - N/A% 30.05 in 10.0 mi Calm Calm - N/A   Clear
11:15 AM - - N/A% 30.05 in 10.0 mi Calm Calm - N/A   Clear
11:35 AM - - N/A% 30.05 in 10.0 mi Calm Calm - N/A   Clear
11:55 AM - - N/A% 30.05 in 10.0 mi Calm Calm - N/A   Clear
12:15 PM - - N/A% 30.04 in 10.0 mi Calm Calm - N/A   Clear
12:35 PM - - N/A% 30.04 in 10.0 mi NW 3.5 mph - N/A   Clear
12:55 PM - - N/A% 30.03 in 10.0 mi NNW 6.9 mph - N/A   Clear
1:15 PM - - N/A% 30.02 in 10.0 mi Calm Calm - N/A   Clear
1:35 PM - - N/A% 30.02 in 10.0 mi North 5.8 mph - N/A   Clear
1:55 PM - - N/A% 30.01 in 10.0 mi North 9.2 mph - N/A   Clear
2:15 PM - - N/A% 30.01 in 10.0 mi NNW 5.8 mph - N/A   Clear
2:35 PM - - N/A% 30.00 in 10.0 mi Calm Calm - N/A   Clear
2:55 PM - - N/A% 29.99 in 10.0 mi WNW 9.2 mph - N/A   Scattered Clouds
3:15 PM - - N/A% 29.98 in 10.0 mi Calm Calm - N/A   Clear
3:35 PM - - N/A% 29.97 in 10.0 mi North 6.9 mph - N/A   Clear
3:55 PM - - N/A% 29.97 in 10.0 mi NW 9.2 mph - N/A   Clear
4:15 PM - - N/A% 29.96 in 10.0 mi NW 9.2 mph 16.1 mph N/A   Clear
4:35 PM - - N/A% 29.96 in 10.0 mi NNW 6.9 mph - N/A   Clear
4:55 PM - - N/A% 29.95 in 10.0 mi North 4.6 mph - N/A   Clear
5:15 PM - - N/A% 29.95 in 10.0 mi North 3.5 mph - N/A   Scattered Clouds
5:35 PM - - N/A% 29.95 in 10.0 mi NNE 4.6 mph - N/A   Scattered Clouds
5:55 PM - - N/A% 29.95 in 10.0 mi Calm Calm - N/A   Scattered Clouds
6:15 PM - - N/A% 29.95 in 10.0 mi NW 4.6 mph - N/A   Clear
6:55 PM - - N/A% 29.95 in 10.0 mi NNW 4.6 mph - N/A   Clear
7:15 PM - - N/A% 29.95 in 10.0 mi Calm Calm - N/A   Clear
7:35 PM - - N/A% 29.95 in 10.0 mi Calm Calm - N/A   Clear
7:55 PM - - N/A% 29.95 in 10.0 mi Calm Calm - N/A   Clear
8:15 PM - - N/A% 29.95 in 10.0 mi Calm Calm - N/A   Clear
8:35 PM - - N/A% 29.96 in 10.0 mi Calm Calm - N/A   Clear
8:55 PM - - N/A% 29.96 in 10.0 mi Calm Calm - N/A   Clear
9:15 PM - - N/A% 29.97 in 10.0 mi Calm Calm - N/A   Clear
9:35 PM - - N/A% 29.97 in 10.0 mi Calm Calm - N/A   Clear
9:55 PM - - N/A% 29.98 in 10.0 mi Calm Calm - N/A   Clear
10:15 PM - - N/A% 29.98 in 10.0 mi Calm Calm - N/A   Clear
10:35 PM - - N/A% 29.99 in 10.0 mi Calm Calm - N/A   Scattered Clouds
10:55 PM - - N/A% 29.99 in 10.0 mi Calm Calm - N/A   Scattered Clouds
11:15 PM - - N/A% 29.98 in 10.0 mi Calm Calm - N/A   Scattered Clouds
11:35 PM - - N/A% 29.98 in 10.0 mi Calm Calm - N/A   Scattered Clouds
11:55 PM - - N/A% 29.98 in 10.0 mi Calm Calm - N/A   Scattered Clouds